KC7O Weather Reports


Display with metric or nautical units.
time (UTC)temp
F
wind
direction
speed
MPH
gust
MPH
rain 1hr
in
rain 24hr
in
rain mn
in
humidity
%
barometer
mb
20260510203402 83 236 3.0 6.0 0.00 0.00 0.00 50 1011.5
20260510202909 83 223 2.0 5.0 0.00 0.00 0.00 51 1011.6
20260510202355 84 227 2.0 8.0 0.00 0.00 0.00 50 1011.6
20260510201900 84 221 2.0 8.0 0.00 0.00 0.00 50 1011.6
20260510201404 83 211 1.0 4.0 0.00 0.00 0.00 50 1011.7
20260510200907 83 166 1.0 6.0 0.00 0.00 0.00 51 1011.6
20260510200412 83 192 1.0 6.0 0.00 0.00 0.00 51 1011.7
20260510195857 82 236 1.0 6.0 0.00 0.00 0.00 53 1011.7
20260510195402 82 150 2.0 6.0 0.00 0.00 0.00 52 1011.7
20260510194928 81 263 2.0 7.0 0.00 0.00 0.00 53 1011.7
20260510194412 81 198 2.0 7.0 0.00 0.00 0.00 54 1011.7
20260510193857 81 217 2.0 5.0 0.00 0.00 0.00 54 1011.7
20260510193404 81 194 2.0 5.0 0.00 0.00 0.00 53 1011.7
20260510192854 81 283 3.0 5.0 0.00 0.00 0.00 53 1011.8
20260510192401 81 141 2.0 4.0 0.00 0.00 0.00 54 1011.7
20260510191905 80 179 2.0 5.0 0.00 0.00 0.00 54 1011.8
20260510191412 80 188 2.0 6.0 0.00 0.00 0.00 55 1011.9
20260510190857 80 176 2.0 6.0 0.00 0.00 0.00 56 1011.9
20260510190421 80 218 2.0 5.0 0.00 0.00 0.00 55 1011.9
20260510185903 79 214 2.0 4.0 0.00 0.00 0.00 57 1011.9
20260510185409 79 283 1.0 5.0 0.00 0.00 0.00 58 1011.9
20260510184854 79 228 2.0 5.0 0.00 0.00 0.00 59 1012.1
20260510184359 78 214 0.0 5.0 0.00 0.00 0.00 61 1012.0
20260510183925 77 203 2.0 5.0 0.00 0.00 0.00 61 1012.1
20260510183410 76 50 2.0 5.0 0.00 0.00 0.00 61 1012.1
20260510182858 76 141 1.0 5.0 0.00 0.00 0.00 62 1012.0
20260510182403 76 150 3.0 5.0 0.00 0.00 0.00 61 1012.1
20260510181907 76 141 2.0 5.0 0.00 0.00 0.00 61 1012.1
20260510181353 76 210 1.0 5.0 0.00 0.00 0.00 62 1012.1
20260510180857 76 203 2.0 5.0 0.00 0.00 0.00 61 1012.1
20260510180402 76 191 1.0 3.0 0.00 0.00 0.00 62 1012.1
20260510175908 75 207 1.0 3.0 0.00 0.00 0.00 63 1012.0
20260510175354 75 239 1.0 4.0 0.00 0.00 0.00 64 1011.9
20260510174858 74 181 2.0 4.0 0.00 0.00 0.00 65 1011.9
20260510174405 74 272 2.0 6.0 0.00 0.00 0.00 65 1011.9
20260510173929 74 219 2.0 6.0 0.00 0.00 0.00 66 1011.9
20260510173354 74 139 1.0 4.0 0.00 0.00 0.00 65 1011.9
20260510172904 73 168 2.0 4.0 0.00 0.00 0.00 67 1011.9
20260510172430 72 139 1.0 4.0 0.00 0.00 0.00 68 1011.8
20260510171854 73 107 1.0 4.0 0.00 0.00 0.00 67 1011.8
20260510171358 72 137 1.0 3.0 0.00 0.00 0.00 68 1011.8
20260510170923 72 158 1.0 3.0 0.00 0.00 0.00 70 1011.8
20260510170406 71 161 2.0 3.0 0.00 0.00 0.00 70 1011.8
20260510165910 71 227 1.0 3.0 0.00 0.00 0.00 70 1011.9
20260510165413 71 131 0.0 3.0 0.00 0.00 0.00 71 1011.9
20260510164859 70 175 1.0 3.0 0.00 0.00 0.00 71 1011.9
20260510164403 70 161 2.0 3.0 0.00 0.00 0.00 72 1011.8
20260510163928 70 276 1.0 2.0 0.00 0.00 0.00 72 1011.8
20260510163410 69 162 0.0 3.0 0.00 0.00 0.00 74 1011.7
20260510162916 68 211 1.0 3.0 0.00 0.00 0.00 73 1011.8
20260510162400 69 161 1.0 2.0 0.00 0.00 0.00 73 1011.7
20260510161409 67 143 0.0 4.0 0.00 0.00 0.00 76 1011.7
20260510160853 67 165 1.0 4.0 0.00 0.00 0.00 75 1011.7
20260510160359 67 163 0.0 0.0 0.00 0.00 0.00 76 1011.7
20260510155904 67 205 0.0 0.0 0.00 0.00 0.00 76 1011.7
20260510155410 67 140 0.0 0.0 0.00 0.00 0.00 78 1011.7
20260510154855 66 188 0.0 0.0 0.00 0.00 0.00 78 1011.7
20260510154423 65 24 0.0 0.0 0.00 0.00 0.00 79 1011.7
20260510153903 66 25 0.0 0.0 0.00 0.00 0.00 79 1011.7
20260510153425 65 278 0.0 0.0 0.00 0.00 0.00 79 1011.7
20260510152903 65 154 0.0 0.0 0.00 0.00 0.00 81 1011.6
20260510152411 64 154 0.0 0.0 0.00 0.00 0.00 82 1011.6
20260510151858 63 169 0.0 0.0 0.00 0.00 0.00 83 1011.6
20260510151409 63 165 0.0 0.0 0.00 0.00 0.00 85 1011.6
20260510150853 62 182 0.0 0.0 0.00 0.00 0.00 88 1011.6
20260510150359 61 155 0.0 0.0 0.00 0.00 0.00 89 1011.6
20260510145904 60 252 0.0 0.0 0.00 0.00 0.00 91 1011.6
20260510145409 60 274 0.0 0.0 0.00 0.00 0.00 92 1011.6
20260510144853 59 332 0.0 0.0 0.00 0.00 0.00 92 1011.6
20260510144358 58 20 0.0 2.0 0.00 0.00 0.00 92 1011.7
20260510143922 58 30 0.0 2.0 0.00 0.00 0.00 92 1011.6
20260510143407 58 23 0.0 1.0 0.00 0.00 0.00 92 1011.7
20260510142912 58 348 0.0 0.0 0.00 0.00 0.00 93 1011.6
20260510142358 58 348 0.0 1.0 0.00 0.00 0.00 93 1011.5
20260510141903 58 348 0.0 2.0 0.00 0.00 0.00 93 1011.5
20260510141353 58 326 0.0 2.0 0.00 0.00 0.00 93 1011.4
20260510140858 58 356 0.0 0.0 0.00 0.00 0.00 93 1011.4
20260510140404 58 356 0.0 1.0 0.00 0.00 0.00 93 1011.4
20260510135910 58 305 0.0 1.0 0.00 0.00 0.00 93 1011.3
20260510135416 58 357 0.0 0.0 0.00 0.00 0.00 93 1011.2
20260510134900 57 357 0.0 0.0 0.00 0.00 0.00 93 1011.2
20260510134408 57 357 0.0 0.0 0.00 0.00 0.00 93 1011.1
20260510133932 57 357 0.0 0.0 0.00 0.00 0.00 93 1011.2
20260510133357 57 307 0.0 0.0 0.00 0.00 0.00 93 1011.1
20260510132900 57 333 0.0 0.0 0.00 0.00 0.00 92 1011.1
20260510132407 57 354 0.0 0.0 0.00 0.00 0.00 92 1011.0
20260510131912 57 310 0.0 0.0 0.00 0.00 0.00 92 1011.1
20260510131401 57 304 0.0 0.0 0.00 0.00 0.00 92 1011.0
20260510130926 57 16 0.0 0.0 0.00 0.00 0.00 92 1011.0
20260510130410 57 337 0.0 0.0 0.00 0.00 0.00 92 1011.0
20260510125855 58 340 0.0 1.0 0.00 0.00 0.00 92 1011.0
20260510125400 58 337 0.0 1.0 0.00 0.00 0.00 92 1011.0
20260510124905 58 268 0.0 1.0 0.00 0.00 0.00 92 1011.0
20260510124411 58 268 0.0 0.0 0.00 0.00 0.00 92 1011.0
20260510123857 58 268 0.0 0.0 0.00 0.00 0.00 92 1011.0
20260510123401 58 268 0.0 0.0 0.00 0.00 0.00 92 1011.0
20260510122908 58 268 0.0 1.0 0.00 0.00 0.00 92 1011.0
20260510122411 58 249 0.0 1.0 0.00 0.00 0.00 92 1011.0
20260510121916 58 249 0.0 1.0 0.00 0.00 0.00 91 1011.1
20260510121420 58 249 0.0 2.0 0.00 0.00 0.00 92 1011.0
20260510120905 58 249 0.0 2.0 0.00 0.00 0.00 91 1011.1
20260510120427 58 215 0.0 0.0 0.00 0.00 0.00 92 1011.0
20260510115856 58 207 0.0 1.0 0.00 0.00 0.00 91 1011.0
20260510115359 58 207 0.0 1.0 0.00 0.00 0.00 91 1010.9
20260510114905 58 207 0.0 1.0 0.00 0.00 0.00 91 1010.8
20260510114409 58 207 0.0 0.0 0.00 0.00 0.00 91 1010.8
20260510113854 58 207 0.0 0.0 0.00 0.00 0.00 91 1010.8
20260510113356 58 207 0.0 0.0 0.00 0.00 0.00 91 1010.9
20260510112903 58 207 0.0 0.0 0.00 0.00 0.00 91 1010.9
20260510112408 58 207 0.0 1.0 0.00 0.00 0.00 91 1010.9
20260510111932 58 207 0.0 1.0 0.00 0.00 0.00 91 1010.9
20260510111355 58 207 0.0 0.0 0.00 0.00 0.00 91 1010.9
20260510110859 58 207 0.0 1.0 0.00 0.00 0.00 91 1010.9
20260510110404 58 207 0.0 1.0 0.00 0.00 0.00 91 1010.9
20260510105907 58 207 0.0 0.0 0.00 0.00 0.00 91 1010.9
20260510105358 59 207 0.0 0.0 0.00 0.00 0.00 91 1011.0
20260510104906 58 207 0.0 0.0 0.00 0.00 0.00 91 1011.0
20260510104431 59 207 0.0 0.0 0.00 0.00 0.00 91 1010.9
20260510103858 59 207 0.0 0.0 0.00 0.00 0.00 91 1010.9
20260510103402 59 207 0.0 0.0 0.00 0.00 0.00 92 1010.9
20260510102909 59 207 0.0 0.0 0.00 0.00 0.00 92 1011.0
20260510102354 59 207 0.0 1.0 0.00 0.00 0.00 91 1011.0
20260510101859 59 207 0.0 1.0 0.00 0.00 0.00 91 1011.1
20260510101404 59 207 0.0 1.0 0.00 0.00 0.00 92 1011.0
20260510100911 59 206 0.0 0.0 0.00 0.00 0.00 92 1011.0
20260510100402 59 207 0.0 0.0 0.00 0.00 0.00 92 1011.0
20260510095908 59 162 0.0 0.0 0.00 0.00 0.00 92 1011.0
20260510095353 59 162 0.0 0.0 0.00 0.00 0.00 92 1011.0
20260510094859 59 162 0.0 0.0 0.00 0.00 0.00 92 1011.0
20260510094405 59 148 0.0 0.0 0.00 0.00 0.00 92 1010.9
20260510093910 59 148 0.0 1.0 0.00 0.00 0.00 92 1011.0
20260510093353 59 148 0.0 1.0 0.00 0.00 0.00 92 1011.0
20260510092858 59 146 0.0 0.0 0.00 0.00 0.00 92 1011.0
20260510092404 59 153 0.0 0.0 0.00 0.00 0.00 92 1011.0
20260510091909 59 224 0.0 0.0 0.00 0.00 0.00 92 1011.1
20260510091356 59 224 0.0 0.0 0.00 0.00 0.00 92 1011.1
20260510090901 58 224 0.0 0.0 0.00 0.00 0.00 92 1011.0
20260510090405 58 224 0.0 0.0 0.00 0.00 0.00 92 1011.0
20260510085909 58 224 0.0 0.0 0.00 0.00 0.00 92 1011.0
20260510085355 58 224 0.0 0.0 0.00 0.00 0.00 92 1011.0
20260510084901 58 224 0.0 0.0 0.00 0.00 0.00 91 1011.0
20260510084408 59 230 0.0 0.0 0.00 0.00 0.00 91 1011.0
20260510083912 59 230 0.0 0.0 0.00 0.00 0.00 91 1011.0
20260510083357 59 230 0.0 0.0 0.00 0.00 0.00 91 1011.0
20260510082903 59 230 0.0 0.0 0.00 0.00 0.00 91 1011.1
20260510082408 59 230 0.0 0.0 0.00 0.00 0.00 91 1011.2
20260510081853 59 230 0.0 0.0 0.00 0.00 0.00 91 1011.2
20260510081356 59 230 0.0 0.0 0.00 0.00 0.00 92 1011.3
20260510080906 59 230 0.0 0.0 0.00 0.00 0.00 92 1011.3
20260510080352 59 230 0.0 0.0 0.00 0.00 0.00 91 1011.4
20260510075858 59 230 0.0 0.0 0.00 0.00 0.00 91 1011.4
20260510075404 59 230 0.0 0.0 0.00 0.00 0.00 91 1011.3
20260510073914 59 139 0.0 0.0 0.00 0.00 0.00 91 1011.4
20260510073420 59 137 0.0 0.0 0.00 0.00 0.00 91 1011.4
20260510072905 58 137 0.0 0.0 0.00 0.00 0.00 91 1011.4
20260510072431 58 137 0.0 0.0 0.00 0.00 0.00 91 1011.5
20260510071915 59 137 0.0 0.0 0.00 0.00 0.00 90 1011.4
20260510071359 59 137 0.0 0.0 0.00 0.00 0.00 90 1011.4
20260510070925 59 137 0.0 0.0 0.00 0.00 0.00 90 1011.4
20260510070408 59 137 0.0 0.0 0.00 0.00 0.00 90 1011.4
20260510065933 59 137 0.0 0.0 0.00 0.00 0.00 90 1011.5
20260510065356 59 137 0.0 0.0 0.00 0.00 0.00 89 1011.5
20260510064900 59 137 0.0 0.0 0.00 0.00 0.00 89 1011.5
20260510064403 60 137 0.0 0.0 0.00 0.00 0.00 89 1011.6
20260510063853 60 137 0.0 0.0 0.00 0.00 0.00 89 1011.5
20260510063357 60 137 0.0 0.0 0.00 0.00 0.00 88 1011.5
20260510062904 60 137 0.0 0.0 0.00 0.00 0.00 88 1011.5
20260510062409 60 137 0.0 0.0 0.00 0.00 0.00 88 1011.5
20260510061856 60 137 0.0 0.0 0.00 0.00 0.00 88 1011.4
20260510061402 60 137 0.0 0.0 0.00 0.00 0.00 88 1011.4
20260510060908 61 137 0.0 0.0 0.00 0.00 0.00 88 1011.4
20260510060352 61 137 0.0 0.0 0.00 0.00 0.00 87 1011.4
20260510055900 61 137 0.0 0.0 0.00 0.00 0.00 87 1011.6
20260510055405 61 137 0.0 0.0 0.00 0.00 0.00 86 1011.5
20260510054853 61 137 0.0 0.0 0.00 0.00 0.00 86 1011.5
20260510054359 61 137 0.0 0.0 0.00 0.00 0.00 86 1011.6
20260510053904 62 137 0.0 0.0 0.00 0.00 0.00 85 1011.6
20260510053409 62 137 0.0 0.0 0.00 0.00 0.00 85 1011.6
20260510052855 62 137 0.0 0.0 0.00 0.00 0.00 85 1011.6
20260510052400 62 137 0.0 0.0 0.00 0.00 0.00 84 1011.6
20260510051905 63 137 0.0 0.0 0.00 0.00 0.00 84 1011.4
20260510051429 63 137 0.0 0.0 0.00 0.00 0.00 84 1011.5
20260510050853 63 137 0.0 0.0 0.00 0.00 0.00 83 1011.5
20260510050357 63 137 0.0 0.0 0.00 0.00 0.00 83 1011.4
20260510045902 63 137 0.0 0.0 0.00 0.00 0.00 83 1011.5
20260510045405 63 137 0.0 0.0 0.00 0.00 0.00 82 1011.5
20260510044854 64 137 0.0 0.0 0.00 0.00 0.00 82 1011.5
20260510044400 64 137 0.0 0.0 0.00 0.00 0.00 82 1011.4
20260510043907 64 137 0.0 0.0 0.00 0.00 0.00 81 1011.4
20260510043411 64 137 0.0 0.0 0.00 0.00 0.00 80 1011.3
20260510042857 65 200 0.0 0.0 0.00 0.00 0.00 80 1011.2
20260510042359 65 200 0.0 0.0 0.00 0.00 0.00 79 1011.2
20260510041904 65 207 0.0 0.0 0.00 0.00 0.00 79 1011.2
20260510041427 65 207 0.0 0.0 0.00 0.00 0.00 79 1011.1
20260510040911 66 207 0.0 0.0 0.00 0.00 0.00 78 1011.1
20260510040356 66 207 0.0 0.0 0.00 0.00 0.00 78 1011.0
20260510035901 66 207 0.0 1.0 0.00 0.00 0.00 77 1010.9
20260510035407 66 206 0.0 1.0 0.00 0.00 0.00 77 1010.9
20260510034400 67 198 0.0 0.0 0.00 0.00 0.00 76 1010.7
20260510033900 67 198 0.0 0.0 0.00 0.00 0.00 75 1010.7
20260510033402 67 198 0.0 0.0 0.00 0.00 0.00 75 1010.6
20260510032907 68 204 0.0 0.0 0.00 0.00 0.00 74 1010.6
20260510032354 68 215 0.0 0.0 0.00 0.00 0.00 73 1010.6
20260510031858 68 224 0.0 0.0 0.00 0.00 0.00 73 1010.5
20260510031425 69 229 0.0 0.0 0.00 0.00 0.00 72 1010.4
20260510030910 69 229 0.0 2.0 0.00 0.00 0.00 72 1010.4
20260510030356 69 229 0.0 2.0 0.00 0.00 0.00 71 1010.3
20260510025902 69 154 0.0 1.0 0.00 0.00 0.00 70 1010.2
20260510025352 70 146 0.0 0.0 0.00 0.00 0.00 70 1010.2
20260510024858 70 174 0.0 1.0 0.00 0.00 0.00 69 1010.2
20260510024403 70 173 0.0 1.0 0.00 0.00 0.00 69 1010.2
20260510023907 71 206 0.0 2.0 0.00 0.00 0.00 68 1010.1
20260510023352 71 163 0.0 2.0 0.00 0.00 0.00 67 1010.1
20260510022857 71 242 0.0 1.0 0.00 0.00 0.00 67 1010.1
20260510022402 72 245 0.0 2.0 0.00 0.00 0.00 67 1010.1
20260510021906 72 217 0.0 2.0 0.00 0.00 0.00 66 1010.0
20260510021413 72 262 1.0 2.0 0.00 0.00 0.00 66 1010.0
20260510020857 73 255 1.0 3.0 0.00 0.00 0.00 65 1009.9
20260510020403 73 214 0.0 3.0 0.00 0.00 0.00 64 1009.9
20260510015930 73 182 1.0 4.0 0.00 0.00 0.00 64 1009.9
20260510015354 74 180 1.0 4.0 0.00 0.00 0.00 62 1009.9
20260510014901 75 161 0.0 3.0 0.00 0.00 0.00 62 1009.8
20260510014407 75 176 1.0 3.0 0.00 0.00 0.00 62 1009.8
20260510013915 75 156 1.0 2.0 0.00 0.00 0.00 61 1009.7
20260510012900 77 252 1.0 4.0 0.00 0.00 0.00 59 1009.7
20260510012407 77 166 1.0 4.0 0.00 0.00 0.00 58 1009.7
20260510011853 77 278 1.0 4.0 0.00 0.00 0.00 58 1009.7
20260510011400 78 188 1.0 3.0 0.00 0.00 0.00 57 1009.6
20260510010926 79 153 0.0 4.0 0.00 0.00 0.00 56 1009.6
20260510010410 78 276 1.0 6.0 0.00 0.00 0.00 57 1009.6
20260510005857 78 252 2.0 6.0 0.00 0.00 0.00 57 1009.6
20260510005359 79 155 1.0 4.0 0.00 0.00 0.00 56 1009.7
20260510004401 79 212 1.0 4.0 0.00 0.00 0.00 55 1009.6
20260510003907 79 161 2.0 4.0 0.00 0.00 0.00 54 1009.5
20260510003411 79 153 1.0 5.0 0.00 0.00 0.00 55 1009.5
20260510002856 79 251 1.0 5.0 0.00 0.00 0.00 55 1009.5
20260510002421 80 272 2.0 5.0 0.00 0.00 0.00 55 1009.6
20260510001925 80 257 1.0 5.0 0.00 0.00 0.00 54 1009.6
20260510001407 80 233 2.0 8.0 0.00 0.00 0.00 55 1009.5
20260510000853 79 224 2.0 8.0 0.00 0.00 0.00 55 1009.6
20260510000418 79 248 2.0 5.0 0.00 0.00 0.00 55 1009.6
20260509235901 79 158 2.0 4.0 0.00 0.00 0.00 55 1009.6
20260509235405 79 260 2.0 5.0 0.00 0.00 0.00 55 1009.7
20260509234931 80 252 3.0 6.0 0.00 0.00 0.00 55 1009.5
20260509234353 80 189 3.0 6.0 0.00 0.00 0.00 55 1009.6
20260509233857 80 179 3.0 7.0 0.00 0.00 0.00 55 1009.6
20260509233404 81 188 3.0 7.0 0.00 0.00 0.00 55 1009.5
20260509232910 81 148 1.0 9.0 0.00 0.00 0.00 55 1009.5
20260509232354 81 155 3.0 9.0 0.00 0.00 0.00 54 1009.5
20260509231901 81 250 2.0 6.0 0.00 0.00 0.00 54 1009.5
20260509231407 81 243 2.0 6.0 0.00 0.00 0.00 54 1009.6
20260509230855 82 266 2.0 5.0 0.00 0.00 0.00 54 1009.5
20260509230359 82 223 3.0 5.0 0.00 0.00 0.00 54 1009.5
20260509225907 82 217 2.0 7.0 0.00 0.00 0.00 54 1009.5
20260509225353 82 198 3.0 7.0 0.00 0.00 0.00 54 1009.5
20260509224900 82 160 3.0 8.0 0.00 0.00 0.00 53 1009.6
20260509223907 82 172 3.0 6.0 0.00 0.00 0.00 53 1009.8
20260509223411 82 212 2.0 6.0 0.00 0.00 0.00 52 1009.8
20260509222857 83 262 2.0 5.0 0.00 0.00 0.00 52 1009.8
20260509222401 83 133 1.0 5.0 0.00 0.00 0.00 52 1009.9
20260509221906 83 211 1.0 5.0 0.00 0.00 0.00 53 1010.0
20260509221355 82 271 2.0 6.0 0.00 0.00 0.00 53 1010.0
20260509220859 82 181 1.0 6.0 0.00 0.00 0.00 54 1010.1
20260509220404 82 194 2.0 7.0 0.00 0.00 0.00 53 1010.1
20260509215910 82 248 3.0 7.0 0.00 0.00 0.00 53 1010.2
20260509215415 82 207 2.0 5.0 0.00 0.00 0.00 53 1010.2
20260509214900 82 177 3.0 7.0 0.00 0.00 0.00 54 1010.3
20260509214406 81 137 3.0 7.0 0.00 0.00 0.00 54 1010.3
20260509213912 82 162 1.0 4.0 0.00 0.00 0.00 54 1010.4
20260509213353 82 185 2.0 5.0 0.00 0.00 0.00 54 1010.5
20260509212859 82 234 1.0 5.0 0.00 0.00 0.00 54 1010.5
20260509212404 82 193 2.0 7.0 0.00 0.00 0.00 54 1010.5
20260509211417 82 249 3.0 5.0 0.00 0.00 0.00 55 1010.6
20260509210858 82 150 2.0 4.0 0.00 0.00 0.00 55 1010.6
20260509210359 82 175 2.0 6.0 0.00 0.00 0.00 55 1010.6
20260509205904 81 229 3.0 6.0 0.00 0.00 0.00 55 1010.7
20260509205411 82 164 2.0 4.0 0.00 0.00 0.00 55 1010.8
20260509204858 81 219 2.0 4.0 0.00 0.00 0.00 56 1010.9
20260509204422 81 157 1.0 5.0 0.00 0.00 0.00 57 1011.0
20260509203907 81 171 2.0 5.0 0.00 0.00 0.00 57 1011.0